星链-35553(STARLINK-35553)

导读 | 豆包AI

STARLINK-35553是美国SpaceX星链星座的低轨通信卫星,于2025年10月22日发射。卫星运行于近350公里低轨,搭载Ku/Ka波段相控阵通信载荷与激光星间链路,采用霍尔推进器实现轨道机动与离轨。作为星链全球宽带互联网项目的组成部分,它可为偏远地区提供低延迟高速网络,同时支持商业与特种通信服务,寿命末期会主动坠入大气层销毁。

Basic Information
目录编号:
66120
目录名称:
STARLINK-35553
国际标识:
2025-237G
轨道中心:
EARTH
卫星名称:
星链-35553
卫星全名:
星链-35553(STARLINK-35553)
卫星状态:
在轨 (已飞行191 天)
发射日期:
2025-10-22 UTC
国别 :
美国 (US)
星等 :
--
Orbit Information
数据来源 国际轨道数据 AOE轨道数据
星历时间 2026-04-30T17:02:35+0800
22小时前
查看轨道信息
2026-05-01T02:00:00+0800
13小时前
查看轨道信息
半长轴 6853.357km 6853.387km
偏心率 0.0001348 0.0001526
轨道倾角 53.159° 53.158°
近地点辐角 87.807° 74.449°
升交点赤经 159.573° 157.844°
平近点角 272.309° 182.707°
近地点 474.296km 474.204km
远地点 476.144km 476.296km
周期 94.105分钟 94.106分钟
每日圈数 15.301986 15.301884
Detailed Information
固有亮度:
5
最大亮度:
2.5
卫星平台:
Starlink V1.0
覆盖范围:
全球
运营商:
太空探索技术公司
运营商所在国:
美国
制造商(研发单位):
太空探索技术公司
制造商所在国:
美国
使用方式:
暂无
Satellite Introduction
Starlink 计划是 SpaceX 推出的全球卫星互联网项目,通过发射低轨道卫星,为全球尤其是偏远地区提供高速、低延迟的互联网服务。自 2019 年起,Starlink 已部署数千颗卫星,旨在缩小全球数字鸿沟,推动互联网普及。该项目还为军事、航空等行业提供通信支持,带来广泛经济效益。
2D Orbit Map
3D Orbit Map
Orbit Altitude Analysis Chart
Orbit Inclination Analysis Chart
Orbit Comprehensive Analysis Chart
View Comprehensive Chart